CDT,Max TemperatureF,Mean TemperatureF,Min TemperatureF,Max Dew PointF,MeanDew PointF,Min DewpointF,Max Humidity, Mean Humidity, Min Humidity, Max Sea Level PressureIn, Mean Sea Level PressureIn, Min Sea Level PressureIn, Max VisibilityMiles, Mean VisibilityMiles, Min VisibilityMiles, Max Wind SpeedMPH, Mean Wind SpeedMPH, Max Gust SpeedMPH,PrecipitationIn, CloudCover, Events, WindDirDegrees
2012-10-1,78,68,59,55,51,45,88,60,30,29.82,29.78,29.75,10,10,10,13,5,24,0.01,2,,330
2012-10-2,73,64,55,59,54,50,94,69,44,29.98,29.91,29.82,10,10,10,7,2,,0.00,0,,356
2012-10-3,80,66,53,59,53,45,100,68,28,30.08,30.01,29.97,10,9,4,7,1,,0.00,0,,169
2012-10-4,84,70,57,63,58,54,94,70,37,30.18,30.12,30.08,10,10,4,13,2,,0.00,0,,159
2012-10-5,86,74,62,66,62,57,94,72,43,30.13,30.06,29.98,10,10,10,13,2,17,0.00,1,,214
2012-10-6,64,56,48,57,48,37,94,78,62,30.21,30.11,30.05,10,9,2,13,8,20,0.00,7,,31
2012-10-7,53,48,44,45,38,36,93,66,54,30.29,30.22,30.16,10,10,7,13,9,21,0.01,7,Rain,24
2012-10-8,64,55,46,46,43,39,93,73,40,30.27,30.19,30.11,10,10,7,8,4,,0.01,4,,52
2012-10-9,75,60,44,63,53,43,100,77,53,30.12,30.04,29.93,10,10,10,12,4,20,0.00,6,,167
2012-10-10,82,73,64,66,63,61,100,76,54,30.16,30.10,30.02,10,10,4,13,4,18,0.00,5,,111
2012-10-11,84,74,64,66,63,61,94,73,45,30.20,30.15,30.11,10,10,5,9,4,,0.00,4,,160
2012-10-12,86,74,62,68,62,59,94,75,45,30.23,30.17,30.13,10,9,5,12,2,,0.00,1,,146
2012-10-13,86,75,64,70,64,61,100,73,43,30.14,30.04,29.91,10,8,3,16,6,24,0.01,4,Rain,176
2012-10-14,84,72,60,70,60,48,100,66,32,30.08,30.00,29.92,10,10,7,13,6,26,0.11,2,Rain-Thunderstorm,250
2012-10-15,78,64,51,54,50,41,94,65,26,30.11,30.05,29.99,10,10,10,6,1,,0.00,0,,59
2012-10-16,68,60,51,59,53,50,94,80,52,30.01,29.97,29.94,10,10,5,8,2,,0.00,1,,179
2012-10-17,82,70,59,64,60,55,100,86,54,,,,10,10,4,15,7,24,0.00,6,,191
2012-10-18,,,,,,,,,,,,,,,,,,,,,,
2012-10-19,,,,,,,,,,,,,,,,,,,,,,
2012-10-20,,,,,,,,,,,,,,,,,,,,,,
2012-10-21,,,,,,,,,,,,,,,,,,,,,,
2012-10-22,,,,,,,,,,,,,,,,,,,,,,
2012-10-23,,,,,,,,,,,,,,,,,,,,,,
2012-10-24,,,,,,,,,,,,,,,,,,,,,,
2012-10-25,86,70,55,70,64,54,94,70,45,30.01,29.92,29.87,10,10,7,12,6,18,0.01,6,Rain,224
2012-10-26,55,52,46,52,46,37,94,84,71,30.25,30.14,30.00,10,9,2,16,7,21,0.14,8,Rain-Thunderstorm,2
2012-10-27,57,47,35,37,34,32,93,65,38,30.28,30.21,30.13,10,10,0,13,6,18,0.00,0,,3
2012-10-28,60,46,33,36,32,27,93,66,27,30.28,30.22,30.18,10,9,0,9,2,16,0.00,0,,10
2012-10-29,64,48,32,41,32,27,100,66,26,30.32,30.24,30.15,10,9,0,7,1,,0.00,0,Fog,64
2012-10-30,71,52,33,46,38,34,100,66,25,30.15,30.06,29.98,10,10,10,9,1,,0.00,0,,230
2012-10-31,78,60,42,55,48,41,100,73,32,30.02,29.99,29.96,10,10,7,10,2,,0.00,0,,286